Location: Raitis
(47.2167°N, 11.3833°E)
Time: 10:38:24
(UTC+00:00)

Cosmos 1777 Rocket - Pass Details

Date: 03 March 2021
Orbit: 759 x 775 km, 74.0° (Epoch: 22 April)

Event Time Altitude Azimuth Distance (km) Brightness Sun altitude
Rises 18:27:48 0° 341° (NNW) 3,249 7.6 -15.2°
Reaches altitude 10° 18:30:17 10° 347° (NNW) 2,316 6.7 -15.6°
Maximum altitude 18:35:22 49° 62° (ENE) 982 4.2 -16.5°
Enters shadow 18:38:06 25° 125° (SE) 1,490 5.0 -16.9°
